Time,TemperatureF,DewpointF,PressureIn,WindDirection,WindDirectionDegrees,WindSpeedMPH,WindSpeedGustMPH,Humidity,HourlyPrecipIn,Conditions,Clouds,dailyrainin,SoftwareType,DateUTC
2013-01-03 00:04:00,17.8,10.0,30.16,SSW,193,0.0,-999.0,72,-99.99,,,0.00,weatherlink.com 1.10,2013-01-03 05:04:00,
2013-01-03 00:19:00,16.5,10.0,30.16,South,181,0.0,-999.0,74,-99.99,,,0.00,weatherlink.com 1.10,2013-01-03 05:19:00,
2013-01-03 00:34:00,15.4,9.0,30.16,South,181,0.0,-999.0,75,-99.99,,,0.00,weatherlink.com 1.10,2013-01-03 05:34:00,
2013-01-03 00:49:00,14.6,8.0,30.16,SSW,199,1.0,-999.0,76,-99.99,,,0.00,weatherlink.com 1.10,2013-01-03 05:49:00,
2013-01-03 01:04:00,14.0,8.0,30.16,South,189,0.0,-999.0,78,-99.99,,,0.00,weatherlink.com 1.10,2013-01-03 06:04:00,
2013-01-03 01:19:00,13.1,8.0,30.16,South,171,0.0,-999.0,79,-99.99,,,0.00,weatherlink.com 1.10,2013-01-03 06:19:00,
2013-01-03 01:34:00,12.1,7.0,30.16,South,171,0.0,-999.0,79,-99.99,,,0.00,weatherlink.com 1.10,2013-01-03 06:34:00,
2013-01-03 01:49:00,11.4,6.0,30.17,South,171,0.0,-999.0,80,-99.99,,,0.00,weatherlink.com 1.10,2013-01-03 06:49:00,
2013-01-03 02:04:00,10.7,6.0,30.18,South,171,0.0,-999.0,81,-99.99,,,0.00,weatherlink.com 1.10,2013-01-03 07:04:00,
2013-01-03 02:19:00,10.5,6.0,30.18,South,171,0.0,-999.0,81,-99.99,,,0.00,weatherlink.com 1.10,2013-01-03 07:19:00,
2013-01-03 02:34:00,10.4,6.0,30.19,South,171,0.0,-999.0,82,-99.99,,,0.00,weatherlink.com 1.10,2013-01-03 07:34:00,
2013-01-03 02:49:00,11.1,7.0,30.19,South,171,0.0,-999.0,83,-99.99,,,0.00,weatherlink.com 1.10,2013-01-03 07:49:00,
2013-01-03 03:04:00,11.9,8.0,30.18,WNW,301,0.0,-999.0,84,-99.99,,,0.00,weatherlink.com 1.10,2013-01-03 08:04:00,
2013-01-03 03:19:00,12.1,8.0,30.18,SSW,213,0.0,-999.0,83,-99.99,,,0.00,weatherlink.com 1.10,2013-01-03 08:19:00,
2013-01-03 03:34:00,12.3,8.0,30.18,SW,215,0.0,-999.0,84,-99.99,,,0.00,weatherlink.com 1.10,2013-01-03 08:34:00,
2013-01-03 03:49:00,12.4,9.0,30.18,SSE,154,0.0,-999.0,84,-99.99,,,0.00,weatherlink.com 1.10,2013-01-03 08:49:00,
2013-01-03 04:04:00,13.3,9.0,30.16,South,191,0.0,-999.0,84,-99.99,,,0.00,weatherlink.com 1.10,2013-01-03 09:04:00,
2013-01-03 04:19:00,14.3,10.0,30.15,SW,217,5.0,-999.0,83,-99.99,,,0.00,weatherlink.com 1.10,2013-01-03 09:19:00,
2013-01-03 04:34:00,14.9,10.0,30.15,SSW,199,1.0,-999.0,81,-99.99,,,0.00,weatherlink.com 1.10,2013-01-03 09:34:00,
2013-01-03 04:49:00,15.2,10.0,30.15,SSW,199,1.0,-999.0,80,-99.99,,,0.00,weatherlink.com 1.10,2013-01-03 09:49:00,
2013-01-03 05:04:00,15.4,10.0,30.15,SSW,199,0.0,-999.0,79,-99.99,,,0.00,weatherlink.com 1.10,2013-01-03 10:04:00,
2013-01-03 05:19:00,15.4,10.0,30.15,SSW,205,0.0,-999.0,79,-99.99,,,0.00,weatherlink.com 1.10,2013-01-03 10:19:00,
2013-01-03 05:35:00,15.4,10.0,30.15,SSW,206,2.0,-999.0,79,-99.99,,,0.00,weatherlink.com 1.10,2013-01-03 10:35:00,
2013-01-03 05:49:00,15.4,10.0,30.14,South,172,6.0,-999.0,79,-99.99,,,0.00,weatherlink.com 1.10,2013-01-03 10:49:00,
2013-01-03 06:04:00,15.1,10.0,30.15,SSW,192,2.0,-999.0,79,-99.99,,,0.00,weatherlink.com 1.10,2013-01-03 11:04:00,
2013-01-03 06:19:00,15.2,10.0,30.14,SSW,213,0.0,-999.0,80,-99.99,,,0.00,weatherlink.com 1.10,2013-01-03 11:19:00,
2013-01-03 06:34:00,15.6,10.0,30.15,SSW,202,0.0,-999.0,79,-99.99,,,0.00,weatherlink.com 1.10,2013-01-03 11:34:00,
2013-01-03 06:49:00,15.4,10.0,30.14,SW,229,5.0,-999.0,79,-99.99,,,0.00,weatherlink.com 1.10,2013-01-03 11:49:00,
2013-01-03 07:04:00,15.2,10.0,30.14,South,178,2.0,-999.0,79,-99.99,,,0.00,weatherlink.com 1.10,2013-01-03 12:04:00,
2013-01-03 07:19:00,15.1,10.0,30.14,South,174,0.0,-999.0,80,-99.99,,,0.00,weatherlink.com 1.10,2013-01-03 12:19:00,
2013-01-03 07:34:00,14.9,10.0,30.13,SW,215,4.0,-999.0,79,-99.99,,,0.00,weatherlink.com 1.10,2013-01-03 12:34:00,
2013-01-03 07:49:00,14.9,10.0,30.13,South,172,0.0,-999.0,80,-99.99,,,0.00,weatherlink.com 1.10,2013-01-03 12:49:00,
2013-01-03 08:05:00,15.1,10.0,30.13,South,188,1.0,-999.0,80,-99.99,,,0.00,weatherlink.com 1.10,2013-01-03 13:05:00,
2013-01-03 08:19:00,15.2,10.0,30.13,SSW,205,6.0,-999.0,79,-99.99,,,0.00,weatherlink.com 1.10,2013-01-03 13:19:00,
2013-01-03 08:34:00,15.4,10.0,30.13,South,178,0.0,-999.0,78,-99.99,,,0.00,weatherlink.com 1.10,2013-01-03 13:34:00,
2013-01-03 08:49:00,15.4,10.0,30.13,WSW,253,7.0,-999.0,78,-99.99,,,0.00,weatherlink.com 1.10,2013-01-03 13:49:00,
2013-01-03 09:05:00,15.7,10.0,30.13,SW,234,7.0,-999.0,77,-99.99,,,0.00,weatherlink.com 1.10,2013-01-03 14:05:00,
2013-01-03 09:20:00,16.1,10.0,30.13,SSW,200,8.0,-999.0,77,-99.99,,,0.00,weatherlink.com 1.10,2013-01-03 14:20:00,
2013-01-03 09:35:00,16.4,10.0,30.13,SSW,198,3.0,-999.0,76,-99.99,,,0.00,weatherlink.com 1.10,2013-01-03 14:35:00,
2013-01-03 09:50:00,17.2,10.0,30.12,SE,140,1.0,-999.0,74,-99.99,,,0.00,weatherlink.com 1.10,2013-01-03 14:50:00,
2013-01-03 10:05:00,18.1,10.0,30.12,WSW,240,3.0,-999.0,71,-99.99,,,0.00,weatherlink.com 1.10,2013-01-03 15:05:00,
2013-01-03 10:20:00,19.1,10.0,30.12,SW,232,6.0,-999.0,68,-99.99,,,0.00,weatherlink.com 1.10,2013-01-03 15:20:00,
2013-01-03 10:35:00,19.7,10.0,30.12,South,191,6.0,-999.0,67,-99.99,,,0.00,weatherlink.com 1.10,2013-01-03 15:35:00,
2013-01-03 10:50:00,20.0,11.0,30.11,SSW,210,4.0,-999.0,67,-99.99,,,0.00,weatherlink.com 1.10,2013-01-03 15:50:00,
2013-01-03 11:05:00,20.6,10.0,30.11,SSW,205,2.0,-999.0,64,-99.99,,,0.00,weatherlink.com 1.10,2013-01-03 16:05:00,
2013-01-03 11:20:00,21.3,10.0,30.09,SW,227,5.0,-999.0,61,-99.99,,,0.00,weatherlink.com 1.10,2013-01-03 16:20:00,
2013-01-03 11:35:00,21.9,10.0,30.09,South,185,2.0,-999.0,60,-99.99,,,0.00,weatherlink.com 1.10,2013-01-03 16:35:00,
2013-01-03 11:50:00,22.2,10.0,30.08,SW,217,9.0,-999.0,60,-99.99,,,0.00,weatherlink.com 1.10,2013-01-03 16:50:00,
2013-01-03 12:05:00,22.7,11.0,30.08,SSW,209,7.0,-999.0,61,-99.99,,,0.00,weatherlink.com 1.10,2013-01-03 17:05:00,
2013-01-03 12:20:00,23.5,12.0,30.07,SW,224,2.0,-999.0,61,-99.99,,,0.00,weatherlink.com 1.10,2013-01-03 17:20:00,
2013-01-03 12:35:00,23.6,13.0,30.06,South,184,2.0,-999.0,63,-99.99,,,0.00,weatherlink.com 1.10,2013-01-03 17:35:00,
2013-01-03 12:50:00,23.9,13.0,30.05,SSW,195,2.0,-999.0,64,-99.99,,,0.00,weatherlink.com 1.10,2013-01-03 17:50:00,
2013-01-03 13:05:00,24.1,13.0,30.05,South,185,7.0,-999.0,64,-99.99,,,0.00,weatherlink.com 1.10,2013-01-03 18:05:00,
2013-01-03 13:20:00,24.4,14.0,30.04,WSW,256,3.0,-999.0,64,-99.99,,,0.00,weatherlink.com 1.10,2013-01-03 18:20:00,
2013-01-03 13:35:00,24.7,14.0,30.04,SW,236,2.0,-999.0,65,-99.99,,,0.00,weatherlink.com 1.10,2013-01-03 18:35:00,
2013-01-03 13:50:00,25.3,15.0,30.04,SW,215,5.0,-999.0,64,-99.99,,,0.00,weatherlink.com 1.10,2013-01-03 18:50:00,
2013-01-03 14:05:00,25.6,16.0,30.03,SW,232,6.0,-999.0,66,-99.99,,,0.00,weatherlink.com 1.10,2013-01-03 19:05:00,
2013-01-03 15:05:00,26.4,16.0,30.03,SSW,206,3.0,-999.0,66,-99.99,,,0.00,weatherlink.com 1.10,2013-01-03 20:05:00,
2013-01-03 15:20:00,26.6,17.0,30.03,SW,232,10.0,-999.0,66,-99.99,,,0.00,weatherlink.com 1.10,2013-01-03 20:20:00,
2013-01-03 15:35:00,26.9,17.0,30.04,South,191,2.0,-999.0,66,-99.99,,,0.00,weatherlink.com 1.10,2013-01-03 20:35:00,
2013-01-03 15:50:00,27.0,17.0,30.04,SSW,212,2.0,-999.0,67,-99.99,,,0.00,weatherlink.com 1.10,2013-01-03 20:50:00,
2013-01-03 16:05:00,27.2,18.0,30.03,SW,227,7.0,-999.0,67,-99.99,,,0.00,weatherlink.com 1.10,2013-01-03 21:05:00,
2013-01-03 16:20:00,27.2,18.0,30.03,WSW,250,7.0,-999.0,68,-99.99,,,0.00,weatherlink.com 1.10,2013-01-03 21:20:00,
2013-01-03 16:35:00,27.2,18.0,30.04,SSW,200,5.0,-999.0,69,-99.99,,,0.00,weatherlink.com 1.10,2013-01-03 21:35:00,
2013-01-03 16:50:00,27.2,19.0,30.04,SW,222,5.0,-999.0,70,-99.99,,,0.00,weatherlink.com 1.10,2013-01-03 21:50:00,
2013-01-03 17:05:00,27.2,19.0,30.05,South,189,9.0,-999.0,70,-99.99,,,0.00,weatherlink.com 1.10,2013-01-03 22:05:00,
2013-01-03 17:20:00,27.0,19.0,30.05,SSW,203,2.0,-999.0,71,-99.99,,,0.00,weatherlink.com 1.10,2013-01-03 22:20:00,
2013-01-03 17:35:00,27.0,19.0,30.05,SW,215,5.0,-999.0,73,-99.99,,,0.00,weatherlink.com 1.10,2013-01-03 22:35:00,
2013-01-03 17:50:00,27.0,20.0,30.06,West,260,1.0,-999.0,75,-99.99,,,0.00,weatherlink.com 1.10,2013-01-03 22:50:00,
2013-01-03 18:05:00,26.9,20.0,30.06,SW,217,9.0,-999.0,76,-99.99,,,0.00,weatherlink.com 1.10,2013-01-03 23:05:00,
2013-01-03 18:20:00,26.7,20.0,30.07,West,268,0.0,-999.0,77,-99.99,,,0.00,weatherlink.com 1.10,2013-01-03 23:20:00,
2013-01-03 18:35:00,26.7,21.0,30.07,SSW,213,3.0,-999.0,78,-99.99,,,0.00,weatherlink.com 1.10,2013-01-03 23:35:00,
2013-01-03 18:50:00,26.6,21.0,30.08,SW,219,7.0,-999.0,78,-99.99,,,0.00,weatherlink.com 1.10,2013-01-03 23:50:00,
2013-01-03 19:05:00,26.4,20.0,30.07,SSE,168,1.0,-999.0,78,-99.99,,,0.00,weatherlink.com 1.10,2013-01-04 00:05:00,
2013-01-03 19:20:00,26.4,20.0,30.08,WSW,244,0.0,-999.0,78,-99.99,,,0.00,weatherlink.com 1.10,2013-01-04 00:20:00,
2013-01-03 19:35:00,26.4,21.0,30.09,WSW,239,9.0,-999.0,79,-99.99,,,0.00,weatherlink.com 1.10,2013-01-04 00:35:00,
2013-01-03 19:50:00,26.3,21.0,30.09,SSW,200,2.0,-999.0,79,-99.99,,,0.00,weatherlink.com 1.10,2013-01-04 00:50:00,
2013-01-03 20:05:00,26.3,21.0,30.09,South,186,8.0,-999.0,80,-99.99,,,0.00,weatherlink.com 1.10,2013-01-04 01:05:00,
2013-01-03 20:20:00,26.3,21.0,30.09,NW,323,6.0,-999.0,80,-99.99,,,0.00,weatherlink.com 1.10,2013-01-04 01:20:00,
2013-01-03 20:35:00,26.3,21.0,30.09,SW,236,3.0,-999.0,81,-99.99,,,0.00,weatherlink.com 1.10,2013-01-04 01:35:00,
2013-01-03 20:50:00,26.3,21.0,30.09,SW,229,10.0,-999.0,80,-99.99,,,0.00,weatherlink.com 1.10,2013-01-04 01:50:00,
2013-01-03 21:05:00,26.3,21.0,30.09,SW,226,6.0,-999.0,80,-99.99,,,0.00,weatherlink.com 1.10,2013-01-04 02:05:00,
2013-01-03 21:20:00,26.3,21.0,30.09,SW,224,2.0,-999.0,80,-99.99,,,0.00,weatherlink.com 1.10,2013-01-04 02:20:00,
2013-01-03 21:35:00,26.3,21.0,30.09,SW,222,2.0,-999.0,80,-99.99,,,0.00,weatherlink.com 1.10,2013-01-04 02:35:00,
2013-01-03 21:50:00,26.1,20.0,30.09,West,261,2.0,-999.0,79,-99.99,,,0.00,weatherlink.com 1.10,2013-01-04 02:50:00,
2013-01-03 22:05:00,26.1,20.0,30.09,West,265,2.0,-999.0,79,-99.99,,,0.00,weatherlink.com 1.10,2013-01-04 03:05:00,
2013-01-03 22:20:00,26.0,20.0,30.09,SW,223,1.0,-999.0,79,-99.99,,,0.00,weatherlink.com 1.10,2013-01-04 03:20:00,
2013-01-03 22:35:00,26.0,20.0,30.09,SW,232,6.0,-999.0,79,-99.99,,,0.00,weatherlink.com 1.10,2013-01-04 03:35:00,
2013-01-03 22:50:00,25.8,20.0,30.09,SW,226,2.0,-999.0,79,-99.99,,,0.00,weatherlink.com 1.10,2013-01-04 03:50:00,
2013-01-03 23:05:00,26.0,20.0,30.09,WSW,248,8.0,-999.0,79,-99.99,,,0.00,weatherlink.com 1.10,2013-01-04 04:05:00,
2013-01-03 23:20:00,26.0,21.0,30.09,SW,223,9.0,-999.0,80,-99.99,,,0.00,weatherlink.com 1.10,2013-01-04 04:20:00,
2013-01-03 23:35:00,26.0,21.0,30.09,SSW,213,6.0,-999.0,80,-99.99,,,0.00,weatherlink.com 1.10,2013-01-04 04:35:00,
2013-01-03 23:50:00,25.8,20.0,30.08,WSW,237,11.0,-999.0,80,-99.99,,,0.00,weatherlink.com 1.10,2013-01-04 04:50:00,